Location: Kapuskasing
(49.3803°N, 82.4001°W)
Time: 10:45:03
(UTC-04:00)

Envisat - Pass Details

Date: 17 March 2026
Orbit: 761 x 762 km, 98.4° (Epoch: 19 April)

Event Time Altitude Azimuth Distance (km) Brightness Sun altitude
Rises 04:07:06 0° 16° (NNE) 3,237 7.1 -32.3°
Reaches altitude 10° 04:09:26 10° 18° (NNE) 2,306 6.2 -32.1°
Enters shadow 04:13:13 49° 38° (NE) 982 3.8 -31.6°
